QFA700 YMML-YSSY

Flight info

Callsign QFA700
Flight time 1h 9m
Altitude 33000
Route DOSEL Y59 RIVET
Aircraft B738/M-SDE2E3FGHIRWXY/LB1

Departure

Time 2026-04-22 10:11
Airport Melbourne Airport (YMML)

Arrival

Time 2026-04-22 11:20
Airport Sydney Kingsford Smith International Airport (YSSY)
Time Latitude Longitude Altitude Speed Heading
2026-04-22 09:28 -37.67132 144.84585 387 ft 0 kts 352°
2026-04-22 09:57 -37.67139 144.84587 387 ft 4 kts 351°
2026-04-22 09:57 -37.67165 144.84594 386 ft 4 kts 340°
2026-04-22 09:57 -37.67189 144.84609 386 ft 4 kts 315°
2026-04-22 09:58 -37.67199 144.84632 386 ft 2 kts 262°
2026-04-22 09:58 -37.67199 144.84633 386 ft 0 kts 262°
2026-04-22 10:02 -37.67200 144.84624 386 ft 3 kts 262°
2026-04-22 10:03 -37.67205 144.84575 385 ft 8 kts 262°
2026-04-22 10:03 -37.67206 144.84488 384 ft 12 kts 282°
2026-04-22 10:03 -37.67201 144.84374 382 ft 8 kts 264°
2026-04-22 10:03 -37.67226 144.84293 381 ft 12 kts 212°
2026-04-22 10:04 -37.67326 144.84293 378 ft 17 kts 170°
2026-04-22 10:04 -37.67456 144.84318 375 ft 21 kts 171°
2026-04-22 10:04 -37.67612 144.84348 371 ft 25 kts 171°
2026-04-22 10:04 -37.67801 144.84380 364 ft 30 kts 173°
2026-04-22 10:05 -37.68025 144.84425 357 ft 34 kts 169°
2026-04-22 10:05 -37.68225 144.84460 356 ft 16 kts 171°
2026-04-22 10:05 -37.68319 144.84477 349 ft 14 kts 178°
2026-04-22 10:05 -37.68404 144.84424 345 ft 14 kts 217°
2026-04-22 10:06 -37.68483 144.84356 347 ft 14 kts 213°
2026-04-22 10:06 -37.68551 144.84269 337 ft 14 kts 258°
2026-04-22 10:06 -37.68553 144.84243 340 ft 0 kts 264°
2026-04-22 10:07 -37.68554 144.84235 340 ft 0 kts 264°
2026-04-22 10:09 -37.68554 144.84232 340 ft 3 kts 264°
2026-04-22 10:09 -37.68561 144.84166 339 ft 11 kts 262°
2026-04-22 10:09 -37.68541 144.84095 349 ft 9 kts 331°
2026-04-22 10:09 -37.68477 144.84079 349 ft 14 kts 351°
2026-04-22 10:10 -37.68239 144.84035 354 ft 65 kts 352°
2026-04-22 10:10 -37.67590 144.83914 369 ft 122 kts 352°
2026-04-22 10:10 -37.66597 144.83740 433 ft 162 kts 353°
2026-04-22 10:10 -37.65442 144.83533 909 ft 175 kts 352°
2026-04-22 10:11 -37.64150 144.83306 1224 ft 200 kts 353°
2026-04-22 10:11 -37.62725 144.83068 1656 ft 211 kts 352°
2026-04-22 10:11 -37.61213 144.82843 1969 ft 233 kts 353°
2026-04-22 10:11 -37.59529 144.82525 2370 ft 251 kts 352°
2026-04-22 10:12 -37.57782 144.82743 2951 ft 261 kts 23°
2026-04-22 10:12 -37.56163 144.83818 3658 ft 265 kts 30°
2026-04-22 10:12 -37.54530 144.84928 4407 ft 268 kts 29°
2026-04-22 10:12 -37.52863 144.86018 5135 ft 272 kts 28°
2026-04-22 10:13 -37.51737 144.86734 5631 ft 273 kts 27°
2026-04-22 10:13 -37.50026 144.87798 6383 ft 276 kts 27°
2026-04-22 10:13 -37.48294 144.88858 7101 ft 278 kts 27°
2026-04-22 10:13 -37.45945 144.90285 8050 ft 281 kts 27°
2026-04-22 10:14 -37.44774 144.90995 8515 ft 283 kts 27°
2026-04-22 10:14 -37.43191 144.92441 9181 ft 284 kts 52°
2026-04-22 10:14 -37.42024 144.94440 9935 ft 284 kts 55°
2026-04-22 10:14 -37.40880 144.96488 10559 ft 289 kts 55°
2026-04-22 10:15 -37.39688 144.98629 10758 ft 310 kts 55°
2026-04-22 10:15 -37.38410 145.00917 10901 ft 330 kts 55°
2026-04-22 10:15 -37.37046 145.03350 11111 ft 348 kts 54°
2026-04-22 10:15 -37.35631 145.05862 11585 ft 355 kts 54°
2026-04-22 10:16 -37.34196 145.08403 12199 ft 359 kts 54°
2026-04-22 10:16 -37.32761 145.10937 12831 ft 362 kts 54°
2026-04-22 10:16 -37.31277 145.13555 13459 ft 366 kts 54°
2026-04-22 10:16 -37.29791 145.16173 14084 ft 370 kts 53°
2026-04-22 10:17 -37.28307 145.18783 14664 ft 374 kts 53°
2026-04-22 10:17 -37.26789 145.21454 15292 ft 377 kts 53°
2026-04-22 10:17 -37.25259 145.24142 15924 ft 380 kts 53°
2026-04-22 10:17 -37.23718 145.26849 16539 ft 383 kts 53°
2026-04-22 10:18 -37.22162 145.29580 17148 ft 386 kts 54°
2026-04-22 10:18 -37.20591 145.32335 17748 ft 390 kts 54°
2026-04-22 10:18 -37.19007 145.35110 18340 ft 393 kts 54°
2026-04-22 10:18 -37.17405 145.37913 18892 ft 397 kts 54°
2026-04-22 10:19 -37.15790 145.40737 19413 ft 400 kts 53°
2026-04-22 10:19 -37.14164 145.43573 19932 ft 402 kts 53°
2026-04-22 10:19 -37.12528 145.46426 20481 ft 404 kts 53°
2026-04-22 10:19 -37.10880 145.49297 21005 ft 407 kts 53°
2026-04-22 10:20 -37.09220 145.52186 21503 ft 410 kts 53°
2026-04-22 10:20 -37.07552 145.55090 22037 ft 411 kts 53°
2026-04-22 10:20 -37.05879 145.57999 22591 ft 412 kts 53°
2026-04-22 10:20 -37.04200 145.60916 23067 ft 415 kts 53°
2026-04-22 10:21 -37.02503 145.63862 23525 ft 418 kts 53°
2026-04-22 10:21 -37.00818 145.66784 23968 ft 421 kts 53°
2026-04-22 10:21 -36.99079 145.69797 24348 ft 423 kts 53°
2026-04-22 10:21 -36.97370 145.72757 24696 ft 427 kts 53°
2026-04-22 10:22 -36.95602 145.75816 25047 ft 430 kts 53°
2026-04-22 10:22 -36.93844 145.78854 25394 ft 433 kts 53°
2026-04-22 10:22 -36.92073 145.81913 25749 ft 436 kts 53°
2026-04-22 10:22 -36.90293 145.84984 26073 ft 438 kts 53°
2026-04-22 10:23 -36.88522 145.88037 26393 ft 441 kts 53°
2026-04-22 10:23 -36.86712 145.91155 26713 ft 444 kts 53°
2026-04-22 10:23 -36.84894 145.94282 27019 ft 447 kts 53°
2026-04-22 10:23 -36.83060 145.97435 27343 ft 450 kts 53°
2026-04-22 10:24 -36.81213 146.00607 27647 ft 452 kts 53°
2026-04-22 10:24 -36.79361 146.03786 27957 ft 455 kts 53°
2026-04-22 10:24 -36.77491 146.06990 28248 ft 458 kts 53°
2026-04-22 10:24 -36.75611 146.10210 28531 ft 460 kts 53°
2026-04-22 10:25 -36.73721 146.13444 28807 ft 463 kts 53°
2026-04-22 10:25 -36.71819 146.16695 29087 ft 465 kts 53°
2026-04-22 10:25 -36.69908 146.19959 29422 ft 466 kts 53°
2026-04-22 10:25 -36.67996 146.23221 29847 ft 465 kts 53°
2026-04-22 10:26 -36.66093 146.26465 30277 ft 464 kts 53°
2026-04-22 10:26 -36.64184 146.29716 30615 ft 464 kts 53°
2026-04-22 10:26 -36.62276 146.32961 30910 ft 465 kts 53°
2026-04-22 10:26 -36.60363 146.36211 31177 ft 466 kts 53°
2026-04-22 10:27 -36.58448 146.39463 31479 ft 465 kts 53°
2026-04-22 10:27 -36.56540 146.42700 31852 ft 463 kts 53°
2026-04-22 10:27 -36.54638 146.45923 32222 ft 462 kts 53°
2026-04-22 10:27 -36.52737 146.49142 32545 ft 461 kts 53°
2026-04-22 10:28 -36.50841 146.52349 32835 ft 461 kts 53°
2026-04-22 10:28 -36.48941 146.55558 33162 ft 460 kts 53°
2026-04-22 10:28 -36.47046 146.58759 33373 ft 461 kts 53°
2026-04-22 10:28 -36.45137 146.61977 33351 ft 465 kts 53°
2026-04-22 10:29 -36.41304 146.68432 33354 ft 462 kts 53°
2026-04-22 10:29 -36.37507 146.74818 33353 ft 458 kts 53°
2026-04-22 10:30 -36.33751 146.81120 33360 ft 457 kts 53°
2026-04-22 10:30 -36.29937 146.87508 33367 ft 458 kts 53°
2026-04-22 10:31 -36.26139 146.93859 33364 ft 459 kts 53°
2026-04-22 10:31 -36.22333 147.00213 33354 ft 460 kts 53°
2026-04-22 10:32 -36.18543 147.06526 33358 ft 460 kts 53°
2026-04-22 10:32 -36.14713 147.12892 33359 ft 461 kts 53°
2026-04-22 10:33 -36.10875 147.19263 33359 ft 462 kts 53°
2026-04-22 10:33 -36.07002 147.25681 33356 ft 463 kts 53°
2026-04-22 10:34 -36.03173 147.32016 33355 ft 463 kts 53°
2026-04-22 10:34 -35.99286 147.38436 33363 ft 464 kts 53°
2026-04-22 10:35 -35.95445 147.44768 33366 ft 464 kts 53°
2026-04-22 10:35 -35.91573 147.51139 33370 ft 464 kts 53°
2026-04-22 10:36 -35.87699 147.57503 33364 ft 464 kts 53°
2026-04-22 10:36 -35.83823 147.63859 33368 ft 464 kts 53°
2026-04-22 10:37 -35.78001 147.73372 33377 ft 463 kts 53°
2026-04-22 10:38 -35.74122 147.79697 33377 ft 463 kts 53°
2026-04-22 10:38 -35.70234 147.86027 33379 ft 463 kts 53°
2026-04-22 10:39 -35.66349 147.92342 33384 ft 463 kts 53°
2026-04-22 10:39 -35.62456 147.98658 33385 ft 463 kts 53°
2026-04-22 10:40 -35.58561 148.04966 33393 ft 464 kts 53°
2026-04-22 10:40 -35.54656 148.11279 33397 ft 464 kts 53°
2026-04-22 10:41 -35.50752 148.17579 33396 ft 464 kts 53°
2026-04-22 10:41 -35.46841 148.23882 33408 ft 464 kts 53°
2026-04-22 10:42 -35.42919 148.30188 33411 ft 465 kts 53°
2026-04-22 10:42 -35.38988 148.36484 33392 ft 466 kts 53°
2026-04-22 10:43 -35.35046 148.42782 33422 ft 466 kts 53°
2026-04-22 10:43 -35.31098 148.49081 33415 ft 466 kts 53°
2026-04-22 10:44 -35.27146 148.55380 33413 ft 467 kts 53°
2026-04-22 10:44 -35.23185 148.61681 33413 ft 467 kts 53°
2026-04-22 10:45 -35.19240 148.67944 33400 ft 468 kts 53°
2026-04-22 10:45 -35.15269 148.74238 33411 ft 468 kts 53°
2026-04-22 10:46 -35.11284 148.80544 33413 ft 469 kts 53°
2026-04-22 10:46 -35.07295 148.86843 33349 ft 468 kts 53°
2026-04-22 10:46 -35.05320 148.89957 33032 ft 460 kts 53°
2026-04-22 10:47 -35.03378 148.93015 32774 ft 451 kts 53°
2026-04-22 10:47 -35.01465 148.96027 32512 ft 446 kts 53°
2026-04-22 10:47 -34.99567 148.99012 32257 ft 443 kts 53°
2026-04-22 10:47 -34.97682 149.01975 32008 ft 441 kts 53°
2026-04-22 10:48 -34.95805 149.04924 31747 ft 439 kts 54°
2026-04-22 10:48 -34.93934 149.07860 31502 ft 437 kts 54°
2026-04-22 10:48 -34.92073 149.10779 31258 ft 436 kts 54°
2026-04-22 10:48 -34.90214 149.13691 31010 ft 435 kts 54°
2026-04-22 10:49 -34.88358 149.16597 30767 ft 433 kts 54°
2026-04-22 10:49 -34.86510 149.19487 30530 ft 432 kts 54°
2026-04-22 10:49 -34.84669 149.22365 30254 ft 431 kts 54°
2026-04-22 10:49 -34.82830 149.25237 29963 ft 429 kts 54°
2026-04-22 10:50 -34.80996 149.28100 29701 ft 428 kts 54°
2026-04-22 10:50 -34.79168 149.30952 29429 ft 426 kts 54°
2026-04-22 10:50 -34.77347 149.33788 29152 ft 425 kts 54°
2026-04-22 10:50 -34.75533 149.36612 28883 ft 423 kts 54°
2026-04-22 10:51 -34.73768 149.39464 28623 ft 420 kts 59°
2026-04-22 10:51 -34.72317 149.42518 28356 ft 415 kts 65°
2026-04-22 10:51 -34.70987 149.45617 28096 ft 412 kts 66°
2026-04-22 10:51 -34.69690 149.48691 27830 ft 406 kts 66°
2026-04-22 10:52 -34.68401 149.51730 27565 ft 402 kts 65°
2026-04-22 10:52 -34.67114 149.54733 27225 ft 398 kts 65°
2026-04-22 10:52 -34.65831 149.57701 26835 ft 396 kts 65°
2026-04-22 10:52 -34.64550 149.60644 26473 ft 393 kts 65°
2026-04-22 10:53 -34.63273 149.63565 26089 ft 390 kts 65°
2026-04-22 10:53 -34.62001 149.66469 25704 ft 388 kts 65°
2026-04-22 10:53 -34.60735 149.69356 25457 ft 387 kts 65°
2026-04-22 10:53 -34.59474 149.72229 25437 ft 382 kts 65°
2026-04-22 10:54 -34.58242 149.75030 25421 ft 369 kts 65°
2026-04-22 10:54 -34.57067 149.77696 25410 ft 357 kts 66°
2026-04-22 10:54 -34.55920 149.80303 25410 ft 343 kts 66°
2026-04-22 10:54 -34.54817 149.82807 25413 ft 330 kts 66°
2026-04-22 10:55 -34.53757 149.85217 25411 ft 317 kts 66°
2026-04-22 10:55 -34.52738 149.87533 25416 ft 306 kts 66°
2026-04-22 10:55 -34.51738 149.89804 25452 ft 307 kts 66°
2026-04-22 10:55 -34.50717 149.92126 25451 ft 317 kts 66°
2026-04-22 10:56 -34.49670 149.94503 25456 ft 322 kts 66°
2026-04-22 10:56 -34.48616 149.96885 25434 ft 319 kts 66°
2026-04-22 10:56 -34.47570 149.99245 25420 ft 316 kts 66°
2026-04-22 10:56 -34.46534 150.01583 25429 ft 313 kts 66°
2026-04-22 10:57 -34.45504 150.03907 25428 ft 312 kts 66°
2026-04-22 10:57 -34.44479 150.06219 25424 ft 311 kts 66°
2026-04-22 10:57 -34.43453 150.08537 25443 ft 315 kts 66°
2026-04-22 10:57 -34.42407 150.10899 25444 ft 320 kts 66°
2026-04-22 10:58 -34.41354 150.13273 25426 ft 320 kts 66°
2026-04-22 10:58 -34.40302 150.15639 25427 ft 318 kts 66°
2026-04-22 10:58 -34.39257 150.17988 25437 ft 316 kts 66°
2026-04-22 10:58 -34.38220 150.20315 25384 ft 311 kts 67°
2026-04-22 10:59 -34.37200 150.22604 25056 ft 307 kts 67°
2026-04-22 10:59 -34.36187 150.24879 24639 ft 307 kts 67°
2026-04-22 10:59 -34.35176 150.27151 24286 ft 305 kts 67°
2026-04-22 10:59 -34.34174 150.29398 23913 ft 301 kts 67°
2026-04-22 11:00 -34.33517 150.30871 23583 ft 301 kts 67°
2026-04-22 11:00 -34.32526 150.33092 23017 ft 301 kts 67°
2026-04-22 11:00 -34.31519 150.35355 22216 ft 309 kts 66°
2026-04-22 11:00 -34.30488 150.37668 21481 ft 316 kts 66°
2026-04-22 11:01 -34.29445 150.39997 21039 ft 311 kts 66°
2026-04-22 11:01 -34.28406 150.42313 20321 ft 316 kts 66°
2026-04-22 11:01 -34.27356 150.44660 19612 ft 320 kts 66°
2026-04-22 11:01 -34.26293 150.47037 18924 ft 323 kts 66°
2026-04-22 11:02 -34.25220 150.49434 18131 ft 325 kts 66°
2026-04-22 11:02 -34.24138 150.51851 17294 ft 328 kts 65°
2026-04-22 11:02 -34.23048 150.54284 16485 ft 330 kts 65°
2026-04-22 11:02 -34.21950 150.56730 15692 ft 332 kts 65°
2026-04-22 11:03 -34.20848 150.59187 14920 ft 333 kts 65°
2026-04-22 11:03 -34.19740 150.61653 14176 ft 334 kts 64°
2026-04-22 11:03 -34.18623 150.64138 13503 ft 338 kts 64°
2026-04-22 11:03 -34.17514 150.66601 13175 ft 330 kts 64°
2026-04-22 11:04 -34.16431 150.69004 12703 ft 322 kts 64°
2026-04-22 11:04 -34.15371 150.71357 12174 ft 316 kts 64°
2026-04-22 11:04 -34.14329 150.73673 11627 ft 312 kts 64°
2026-04-22 11:04 -34.13300 150.75960 11086 ft 308 kts 64°
2026-04-22 11:05 -34.12298 150.78182 10765 ft 298 kts 64°
2026-04-22 11:05 -34.11046 150.80128 10632 ft 287 kts 41°
2026-04-22 11:05 -34.09289 150.81183 10392 ft 284 kts 15°
2026-04-22 11:05 -34.07315 150.81261 9927 ft 287 kts 356°
2026-04-22 11:06 -34.05338 150.80922 9444 ft 287 kts 353°
2026-04-22 11:06 -34.03394 150.80544 9012 ft 285 kts 353°
2026-04-22 11:06 -34.01470 150.80163 8847 ft 276 kts 353°
2026-04-22 11:06 -33.99612 150.79793 8807 ft 265 kts 353°
2026-04-22 11:07 -33.97815 150.79433 8753 ft 260 kts 353°
2026-04-22 11:07 -33.96040 150.79077 8746 ft 257 kts 353°
2026-04-22 11:07 -33.94264 150.78721 8760 ft 263 kts 353°
2026-04-22 11:07 -33.92382 150.78349 8738 ft 283 kts 353°
2026-04-22 11:08 -33.90431 150.77966 8550 ft 286 kts 353°
2026-04-22 11:08 -33.88456 150.77581 8352 ft 289 kts 352°
2026-04-22 11:08 -33.86476 150.77198 8153 ft 288 kts 352°
2026-04-22 11:08 -33.84503 150.76819 7917 ft 287 kts 352°
2026-04-22 11:09 -33.82530 150.76442 7637 ft 286 kts 352°
2026-04-22 11:09 -33.80566 150.76071 7346 ft 286 kts 352°
2026-04-22 11:09 -33.78601 150.75708 7010 ft 286 kts 354°
2026-04-22 11:09 -33.76632 150.75855 6641 ft 284 kts 20°
2026-04-22 11:10 -33.74957 150.77026 6299 ft 278 kts 47°
2026-04-22 11:10 -33.73956 150.78905 5980 ft 259 kts 75°
2026-04-22 11:10 -33.73540 150.80944 5650 ft 247 kts 82°
2026-04-22 11:10 -33.73216 150.82940 5296 ft 241 kts 82°
2026-04-22 11:11 -33.72903 150.84906 4999 ft 238 kts 82°
2026-04-22 11:11 -33.72598 150.86842 4766 ft 235 kts 82°
2026-04-22 11:11 -33.72295 150.88772 4561 ft 234 kts 82°
2026-04-22 11:11 -33.71999 150.90644 4361 ft 221 kts 82°
2026-04-22 11:12 -33.71716 150.92410 4160 ft 214 kts 82°
2026-04-22 11:12 -33.71437 150.94144 3945 ft 210 kts 82°
2026-04-22 11:12 -33.71162 150.95852 3767 ft 207 kts 82°
2026-04-22 11:12 -33.70894 150.97513 3568 ft 196 kts 83°
2026-04-22 11:13 -33.70636 150.99077 3371 ft 187 kts 83°
2026-04-22 11:13 -33.70385 151.00592 3189 ft 185 kts 83°
2026-04-22 11:13 -33.70134 151.02113 3054 ft 186 kts 83°
2026-04-22 11:13 -33.70142 151.03628 2975 ft 180 kts 114°
2026-04-22 11:14 -33.70874 151.04780 3011 ft 174 kts 137°
2026-04-22 11:14 -33.71756 151.05788 2989 ft 175 kts 137°
2026-04-22 11:14 -33.72637 151.06798 2979 ft 175 kts 137°
2026-04-22 11:14 -33.73514 151.07805 2974 ft 173 kts 137°
2026-04-22 11:15 -33.74367 151.08783 2966 ft 167 kts 137°
2026-04-22 11:15 -33.75194 151.09728 2978 ft 161 kts 137°
2026-04-22 11:15 -33.75994 151.10643 2988 ft 158 kts 137°
2026-04-22 11:15 -33.76794 151.11563 2987 ft 160 kts 137°
2026-04-22 11:16 -33.77603 151.12490 2992 ft 161 kts 137°
2026-04-22 11:16 -33.78484 151.13313 2926 ft 162 kts 160°
2026-04-22 11:16 -33.79555 151.13615 2753 ft 156 kts 166°
2026-04-22 11:16 -33.80572 151.13910 2554 ft 143 kts 166°
2026-04-22 11:17 -33.81504 151.14167 2413 ft 136 kts 166°
2026-04-22 11:17 -33.82451 151.14420 2184 ft 143 kts 166°
2026-04-22 11:17 -33.83426 151.14675 1999 ft 143 kts 167°
2026-04-22 11:17 -33.84399 151.14929 1805 ft 143 kts 167°
2026-04-22 11:18 -33.85371 151.15183 1631 ft 142 kts 167°
2026-04-22 11:18 -33.86341 151.15436 1427 ft 142 kts 168°
2026-04-22 11:18 -33.87299 151.15686 1241 ft 139 kts 167°
2026-04-22 11:18 -33.88247 151.15932 1038 ft 141 kts 166°
2026-04-22 11:19 -33.89187 151.16184 824 ft 139 kts 166°
2026-04-22 11:19 -33.90138 151.16454 601 ft 143 kts 166°
2026-04-22 11:19 -33.91117 151.16712 443 ft 147 kts 167°
2026-04-22 11:19 -33.92121 151.16967 236 ft 146 kts 167°
2026-04-22 11:20 -33.93093 151.17208 56 ft 140 kts 168°
2026-04-22 11:20 -33.93981 151.17427 25 ft 111 kts 167°
2026-04-22 11:20 -33.94486 151.17559 29 ft 20 kts 155°
2026-04-22 11:20 -33.94540 151.17675 29 ft 2 kts 52°
2026-04-22 11:21 -33.94530 151.17692 29 ft 2 kts 61°
2026-04-22 11:21 -33.94523 151.17714 29 ft 4 kts 72°
2026-04-22 11:21 -33.94512 151.17760 29 ft 8 kts 61°
2026-04-22 11:21 -33.94459 151.17773 29 ft 9 kts 348°
2026-04-22 11:22 -33.94395 151.17754 29 ft 10 kts 344°
2026-04-22 11:22 -33.94325 151.17732 29 ft 11 kts 346°
2026-04-22 11:22 -33.94248 151.17707 28 ft 12 kts 345°
2026-04-22 11:22 -33.94164 151.17681 28 ft 13 kts 345°
2026-04-22 11:23 -33.94072 151.17655 27 ft 14 kts 348°
2026-04-22 11:23 -33.93973 151.17630 28 ft 14 kts 348°
2026-04-22 11:23 -33.93878 151.17605 28 ft 14 kts 347°
2026-04-22 11:23 -33.93787 151.17582 28 ft 13 kts 348°
2026-04-22 11:24 -33.93700 151.17558 28 ft 13 kts 347°
2026-04-22 11:24 -33.93614 151.17537 28 ft 12 kts 348°
2026-04-22 11:24 -33.93530 151.17516 28 ft 12 kts 348°
2026-04-22 11:24 -33.93448 151.17504 29 ft 12 kts
2026-04-22 11:25 -33.93362 151.17505 29 ft 14 kts 359°
2026-04-22 11:25 -33.93259 151.17472 29 ft 17 kts 345°
2026-04-22 11:25 -33.93153 151.17444 29 ft 14 kts 348°
2026-04-22 11:25 -33.93068 151.17498 29 ft 17 kts 59°
2026-04-22 11:26 -33.93015 151.17572 29 ft 5 kts 67°
2026-04-22 11:26 -33.93011 151.17615 29 ft 6 kts 92°
2026-04-22 11:26 -33.93022 151.17679 29 ft 8 kts 110°
2026-04-22 11:26 -33.93043 151.17722 29 ft 5 kts 150°
2026-04-22 11:27 -33.93076 151.17722 29 ft 5 kts 188°
2026-04-22 11:27 -33.93104 151.17716 29 ft 3 kts 189°
2026-04-22 11:27 -33.93113 151.17714 29 ft 0 kts 189°
2026-04-22 11:27 -33.93114 151.17714 29 ft 0 kts 189°